Sarasota, FL

10:21 AM EDT on June 27, 2017 (GMT -0400)
Sarasota-bradenton

Weather History for KSRQ - January, 2006

Change the Weather History Date:

Tuesday, January 31, 2006

  Actual Average Record
Temperature  
Mean Temperature 61 °F 62 °F  
Max Temperature 70 °F 72 °F 85 °F (2002)
Min Temperature 52 °F 52 °F 26 °F (1966)
Degree Days  
Heating Degree Days 4 4  
Month to date heating degree days 99 163  
Since 1 July heating degree days 257 320  
Cooling Degree Days 0 2  
Month to date cooling degree days 85 52  
Year to date cooling degree days 85 52  
Growing Degree Days 11 (Base 50)    
Moisture  
Dew Point 46 °F    
Average Humidity 57    
Maximum Humidity 87    
Minimum Humidity 28    
Precipitation  
Precipitation 0.00 in 0.06 in 0.68 in (2004)
Month to date precipitation 6.08 2.49  
Year to date precipitation 6.08 2.49  
Sea Level Pressure  
Sea Level Pressure 29.99 in    
Wind  
Wind Speed 9 mph (NNW)    
Max Wind Speed 21 mph    
Max Gust Speed 26 mph    
Visibility 10 miles    
Events      
T = Trace of Precipitation, MM = Missing Value Source: NWS Daily Summary

Daily Weather History Graph

Daily Weather History Graph

Search for Another Location

Airport or City:

Trip Planner

Search our weather history database for the weather conditions in past years. The results will help you decide how hot, cold, wet, or windy it might be!

Date:

Astronomy

Jan. 31, 2006 Rise Set
Actual Time 7:16 AM EST 6:10 PM EST
Civil Twilight 6:52 AM EST 6:35 PM EST
Nautical Twilight 6:24 AM EST 7:03 PM EST
Astronomical Twilight 5:56 AM EST 7:30 PM EST
Moon 8:58 AM EST (1/31) 8:46 PM EST (1/31)
Length of Visible Light 11h 42m
Length of Day
10h 53m
Waxing Crescent, 7% of the Moon is Illuminated
Jan 31
Waxing Crescent
Feb 5
First Quarter
Feb 12
Full
Feb 21
Last Quarter
Feb 27
New

Hourly Weather History & Observations

Time (EST) Temp. Dew Point Humidity Pressure Visibility Wind Dir Wind Speed Gust Speed Precip Events Conditions
12:53 AM 69.1 °F 64.0 °F 84% 29.87 in 10.0 mi SSW 15.0 mph - N/A   Mostly Cloudy
1:32 AM 69.8 °F 64.4 °F 83% 29.87 in 10.0 mi SSW 12.7 mph - N/A   Scattered Clouds
1:53 AM 68.0 °F 64.9 °F 90% 29.88 in 9.0 mi SW 11.5 mph - N/A   Scattered Clouds
2:53 AM 69.1 °F 64.0 °F 84% 29.90 in 10.0 mi West 12.7 mph - N/A   Clear
3:53 AM 68.0 °F 63.0 °F 84% 29.90 in 10.0 mi WNW 10.4 mph - N/A   Partly Cloudy
4:53 AM 63.0 °F 48.0 °F 58% 29.93 in 10.0 mi North 10.4 mph 21.9 mph N/A   Clear
5:53 AM 61.0 °F 46.0 °F 58% 29.96 in 10.0 mi North 11.5 mph 17.3 mph N/A   Clear
7:53 AM 60.1 °F 44.1 °F 55% 30.00 in 10.0 mi NNE 9.2 mph - N/A   Clear
8:53 AM 62.1 °F 42.1 °F 48% 30.02 in 10.0 mi North 10.4 mph - N/A   Clear
9:53 AM 64.0 °F 39.9 °F 41% 30.05 in 10.0 mi NNE 10.4 mph - N/A   Clear
10:53 AM 64.9 °F 37.9 °F 37% 30.06 in 10.0 mi North 10.4 mph - N/A   Clear
11:53 AM 66.0 °F 37.9 °F 36% 30.04 in 10.0 mi NNE 11.5 mph - N/A   Clear
12:53 PM 68.0 °F 37.0 °F 32% 30.02 in 10.0 mi NNW 10.4 mph 16.1 mph N/A   Clear
1:53 PM 69.1 °F 36.0 °F 30% 30.00 in 10.0 mi North 9.2 mph - N/A   Clear
2:53 PM 69.1 °F 42.1 °F 38% 30.00 in 10.0 mi NNW 11.5 mph - N/A   Clear
3:53 PM 68.0 °F 39.9 °F 36% 30.00 in 10.0 mi NW 9.2 mph - N/A   Clear
4:53 PM 66.9 °F 32.0 °F 27% 30.01 in 10.0 mi NNW 9.2 mph - N/A   Clear
5:53 PM 64.0 °F 39.0 °F 40% 30.02 in 10.0 mi NNW 8.1 mph - N/A   Clear
6:53 PM 57.9 °F 46.0 °F 65% 30.03 in 10.0 mi NW 5.8 mph - N/A   Clear
7:53 PM 55.9 °F 44.1 °F 64% 30.04 in 10.0 mi NNW 5.8 mph - N/A   Clear
8:53 PM 55.0 °F 42.1 °F 62% 30.05 in 10.0 mi NNW 4.6 mph - N/A   Clear
9:53 PM 54.0 °F 44.1 °F 69% 30.06 in 10.0 mi North 3.5 mph - N/A   Clear
10:53 PM 53.1 °F 44.1 °F 71% 30.07 in 10.0 mi North 4.6 mph - N/A   Clear
11:53 PM 53.1 °F 44.1 °F 71% 30.06 in 10.0 mi Calm Calm - N/A   Clear